Location: Wellington
(41.3000°S, 174.7830°E)
Time: 16:27:14
(UTC+12:00)

BREEZE-M DEB (TANK) - Pass Details

Date: 24 January 2019
Orbit: 312 x 16760 km, 49.4° (Epoch: 17 April)

Event Time Altitude Azimuth Distance (km) Brightness Sun altitude
Rises 21:16:18 0° 308° (NW) 11,905 9.9 -5.3°
Reaches altitude 10° 21:28:43 10° 307° (NW) 8,017 9.0 -7.2°
Maximum altitude 21:46:47 86° 32° (NNE) 1,235 4.5 -10.0°
Drops below altitude 10° 21:51:04 10° 120° (ESE) 2,101 5.6 -10.6°
Enters shadow 21:53:57 -8° 120° (ESE) 3,434 6.7 -11.1°
